Weather History for Saint Simons Island, GA

Change the Weather History Date:

Tuesday, May 14, 2013

  Actual Average Record
Temperature  
Mean Temperature 66 °F 74 °F  
Max Temperature 76 °F 82 °F 94 °F (1956)
Min Temperature 55 °F 66 °F 52 °F (1952)
Degree Days  
Heating Degree Days 0 0  
Month to date heating degree days 1 2  
Since 1 July heating degree days 1268 1486  
Cooling Degree Days 1 9  
Month to date cooling degree days 69 106  
Year to date cooling degree days 215 249  
Growing Degree Days 14 (Base 50)    
Moisture  
Dew Point 45 °F    
Average Humidity 46    
Maximum Humidity 63    
Minimum Humidity 29    
Precipitation  
Precipitation 0.00 in 0.05 in 1.14 in (2012)
Month to date precipitation 3.25 0.72  
Year to date precipitation 12.27 13.78  
Snow  
Snow 0.00 in - 0.00 in ()
Month to date snowfall 0.0  
Since 1 July snowfall 0.0  
Snow Depth 0.00 in    
Sea Level Pressure  
Sea Level Pressure 30.21 in    
Wind  
Wind Speed 6 mph (ENE)    
Max Wind Speed 12 mph    
Max Gust Speed 16 mph    
Visibility 10 miles    
Events      
T = Trace of Precipitation, MM = Missing Value Source: NWS Daily Summary

Daily Weather History Graph

Daily Weather History Graph

Search for Another Location

Airport:

Trip Planner

Search our weather history database for the weather conditions in past years. The results will help you decide how hot, cold, wet, or windy it might be!

Date:

Astronomy

May. 14, 2013 Rise Set
Actual Time 6:30 AM EDT 8:13 PM EDT
Civil Twilight 6:03 AM EDT 8:40 PM EDT
Nautical Twilight 5:32 AM EDT 9:12 PM EDT
Astronomical Twilight 4:58 AM EDT 9:46 PM EDT
Moon 10:08 AM EDT (5/14) No Moon Set
Length of Visible Light 14h 36m
Length of Day
13h 43m
Waxing Crescent, 19% of the Moon is Illuminated
May 14
Waxing Crescent
May 18
First Quarter
May 25
Full
May 31
Last Quarter
Jun 8
New

Hourly Weather History & Observations

Time (EDT) Temp. Dew Point Humidity Pressure Visibility Wind Dir Wind Speed Gust Speed Precip Events Conditions
12:53 AM 62.1 °F 43.0 °F 50% 30.17 in 10.0 mi North 3.5 mph - N/A   Clear
1:53 AM 61.0 °F 42.1 °F 50% 30.17 in 10.0 mi NNW 5.8 mph - N/A   Clear
2:53 AM 60.1 °F 42.1 °F 51% 30.17 in 10.0 mi NNW 4.6 mph - N/A   Clear
3:53 AM 59.0 °F 42.1 °F 53% 30.18 in 10.0 mi NNW 3.5 mph - N/A   Clear
4:53 AM 57.0 °F 43.0 °F 59% 30.17 in 10.0 mi NNW 3.5 mph - N/A   Clear
5:53 AM 55.9 °F 42.1 °F 60% 30.18 in 10.0 mi NNW 4.6 mph - N/A   Clear
6:53 AM 55.0 °F 43.0 °F 64% 30.20 in 10.0 mi NNW 4.6 mph - N/A   Clear
7:53 AM 57.9 °F 43.0 °F 58% 30.22 in 10.0 mi NNW 5.8 mph - N/A   Clear
8:53 AM 60.1 °F 44.1 °F 55% 30.23 in 10.0 mi NNW 5.8 mph - N/A   Clear
9:53 AM 66.9 °F 45.0 °F 45% 30.25 in 10.0 mi Calm Calm - N/A   Clear
10:53 AM 72.0 °F 41.0 °F 33% 30.25 in 10.0 mi NE 6.9 mph - N/A   Clear
11:53 AM 73.0 °F 48.9 °F 42% 30.26 in 10.0 mi East 9.2 mph - N/A   Clear
12:53 PM 73.0 °F 48.0 °F 41% 30.26 in 10.0 mi ENE 8.1 mph - N/A   Clear
1:53 PM 73.9 °F 42.1 °F 32% 30.25 in 10.0 mi Variable 4.6 mph - N/A   Clear
2:53 PM 73.9 °F 39.9 °F 29% 30.23 in 10.0 mi SSE 8.1 mph - N/A   Clear
3:53 PM 73.9 °F 44.1 °F 34% 30.21 in 10.0 mi ESE 8.1 mph - N/A   Clear
4:53 PM 73.9 °F 44.1 °F 34% 30.20 in 10.0 mi ESE 9.2 mph - N/A   Clear
5:53 PM 73.0 °F 46.0 °F 38% 30.19 in 10.0 mi ESE 8.1 mph - N/A   Clear
6:53 PM 72.0 °F 46.0 °F 40% 30.19 in 10.0 mi SE 9.2 mph - N/A   Clear
7:53 PM 70.0 °F 46.0 °F 42% 30.19 in 10.0 mi SE 8.1 mph - N/A   Clear
8:53 PM 68.0 °F 46.9 °F 47% 30.19 in 10.0 mi SE 3.5 mph - N/A   Clear
9:53 PM 68.0 °F 48.9 °F 50% 30.21 in 10.0 mi SSE 3.5 mph - N/A   Clear
10:53 PM 64.0 °F 51.1 °F 63% 30.22 in 10.0 mi Calm Calm - N/A   Clear
11:53 PM 68.0 °F 53.1 °F 59% 30.22 in 10.0 mi South 3.5 mph - N/A   Clear